NapervilleWeather.com

Find the Weather for any City, State  
or Zipcode, or Country:

Naperville, IL Weather
Local Radar

Local Radar

Graphs, Details
Graphs and Gauges
Detailed Weather
Detailed Reports
Ajax Version (old)
Davis Summary
Davis Current Weather Graphs
Davis 24 Hour Weather History
Cumulus

CW7164 Data

Weather Underground
www.awekas.at
Automatic Weather Map System
Latest Naperville, Illinois, weather
Weather For You
Maps
Temperature
Heat Index
Windchill
Humidity
Radar
Dew Point
Wind
Visibility
Visible Satellite
Satellite
Fronts
Snow Depth
Jet Stream
Flight Rules
Forecast Maps
Temperature Forecast
Maximum Temperature Forecast
Minimum Temperature Forecast
Dewpoint Forecast
Prevalent Weather
12Hr Probability of Precip.
Sky Cover
Health Maps
UV Forecast
Air Quality
Peak Air Quality Index
Weather Station
Davis Instruments Vantage Pro2
Current Conditions [Select Refresh to Update]

Updated: 4:57am on 7/25/16

(location)
Currently:
71.6°F

Clear
Overcast

High: 72.3 °F< 
(4:03am
Low: 70.8 °F 
(12:22am)
Wind: W 0 mph
Calm
Gust: 0 mph
Today's High Wind: 6 mph (1:01am)
Humidity: 0%
Pressure: 29.95 in  (Steady
Pressure Rate: -0.002 in/hr
Dew Point: 0.0°F
Wind Chill: 71.6 °F
Heat Index (feels like): 69.4 °F
Comfort Level: Comfortable
Temperature Rate:  -0.29°F/hr
 
5 Day Forecast
 
Mon Tue Wed Thu Fri
Clear Clear Clear Clear Clear
Partly Cloudy Partly Cloudy Mostly Cloudy Chance T-storms Chance T-storms
86 86 86 81 79
64 67 68 66 64

Records and Normals
 
Temperature Forecast Normal Record
High 86 85 97
(2012)
Low 64 63 53
(2013)
 
 
Weather Advisories
No Warnings
Full Advisory Text...
Weather Map

Web Cam

Almanac
 
Sunrise:  
5:42am
Moonrise: 
11:47pm

Moon Phase:
70%

Sunset: 
8:19pm
Moonset:  
11:56am
 Star Chart...
Rainfall Totals
Hourly Rain 0.00 in
Daily Rain: 0.00 in
Monthly Rain: 4.31 in
Yearly Rain: 21.13 in
Normal Rain, month to date: 4.58 in
Normal Rain, year to date: 22.00 in
Local Weather Exchange Network
Station ID City 
(Click for Map Location)
Neighborhood 
(Click for History)
Last Update (Date & Time) Temperature
 ()
Dew
Point ()
Humidity 
(%)
Wind 
(mph)
from the Wind Gust 
(mph) 
Pressure(in) Hourly
Rain(in)
KILWARRE7 Warrenville West Bauer Road 07/25 04:49:55 73.8 69.0 85 0 North 0 30.01 0.00
KILNAPER15 Naperville Indian Hill Near Jefferson JHS 07/25 04:49:57 71.8 69.0 92 0 North 0 29.91 0.00
KILNAPER33 Naperville Downtown 07/25 04:47:51 72.1 72.0 100 0 North 0 29.90 0.00
KILNAPER28 Naperville Pawnee Lane 07/25 04:46:40 73.2 70.0 88 0 North 0 29.95 0.00
KILNAPER25 Naperville brushhill-w 07/25 04:46:08 72.8 70.0 91 0 WNW 0 29.91 0.00
KILNAPER24 Naperville Brush Hill 07/25 04:45:21 72.4 71.0 94 0 West 0 29.96 0.00
KILWARRE10 Warrenville Cantera Village Townhomes 07/25 04:43:53 71.1 70.0 97 0 South 0 29.91 0.00
KILNAPER19 Naperville Brookdale Lakes 07/25 04:50:00 72.9 70.0 91 0 NW 0 29.93 0.00
KILNAPER69 Naperville East Highlands 07/25 04:49:57 72.7 70.0 92 0 SE 0 29.95 0.00
KILNAPER7 Naperville NapervilleWeather.com Near Ogden and Naper Blvd 07/25 04:50:03 71.6 0.0 0 0 West 0 29.95 0.00
KILWARRE2 Warrenville Warrenville Neighborhood Weather 07/25 04:47:41 71.7 70.0 93 0 SW 0 29.89 0.00
KILNAPER60 Naperville Longwood 07/25 04:50:01 72.5 70.0 92 0 WSW 0 29.97 0.00
KILNAPER74 Naperville Ambleside Circle 07/25 04:46:32 71.8 71.0 96 0 North 0 29.96 0.00
KILLISLE15 Lisle Highview Drive 07/25 04:49:44 73.6 69.0 85 0 North 0 29.95 0.00
KILNAPER23 Naperville Naper Blvd at BNSF RR 07/25 04:49:48 71.6 70.0 95 0 SSE 1 29.94 0.00
KILNAPER30 Naperville Cypress Drive 07/25 04:45:45 75.4 70.0 83 0 North 0 29.96 0.00
KILLISLE10 Lisle Maple Avenue 07/25 04:46:49 72.5 70.0 90 0 North 0 30.01 0.00
KILNAPER70 Naperville Naperville Central 07/25 04:49:40 72.3 70.0 94 0 NE 0 29.96 0.00
KILLISLE9 Lisle Park Meadow Drive 07/25 04:45:32 74.5 70.0 86 0 North 0 29.98 0.00
KILWARRE6 Warrenville Summer Lakes 07/25 04:38:31 71.2 70.0 95 0 West 1 29.92 0.00
KILWHEAT20 Wheaton Dorset Drive - Stonehedge 07/25 04:49:58 71.0 67.0 90 0 South 0 29.96 0.00
KILNAPER9 Naperville 75th St. / Modaff Area 07/25 04:49:59 72.1 70.0 94 0 East 0 29.92 0.00
KILLISLE7 Lisle Beau Monde Drive 07/25 04:46:26 72.7 70.0 91 0 North 0 30.02 0.00
KILWHEAT8 Wheaton Wheaton Sanitary District 07/25 04:35:12 72.9 71.0 92 0 West 0 29.92 0.00
KILWHEAT15 Wheaton Schubert Court 07/25 04:49:32 72.5 70.0 92 0 North 0 29.88 0.00
KILWHEAT11 Wheaton Wheaton SW Orth Ct 07/25 04:50:01 72.7 68.0 84 0 SSW 0 29.97 0.00
KILNAPER72 Naperville Blackstone Drive 07/25 04:49:20 73.4 70.0 89 0 North 0 29.96 0.00
KILLISLE13 Lisle Oakwood Drive 07/25 04:47:52 73.4 70.0 88 0 North 0 29.91 0.00
KILAUROR41 Aurora Hamman Way 07/25 04:49:14 73.2 72.0 96 0 North 0 29.95 0.00
KILNAPER67 Naperville Split Oak Road 07/25 04:49:04 72.5 71.0 96 0 North 0 30.02 0.00
KILAUROR31 Aurora Downing Court 07/25 04:49:05 72.9 70.0 92 0 North 0 29.95 0.00
KILAUROR27 Aurora Stonehaven 07/25 04:40:20 72.1 69.0 89 1 NW 0 29.94 0.00
KILNAPER35 Naperville Nutmeg Lane 07/25 04:47:04 72.7 70.0 92 0 North 0 30.03 0.00
KDPA Chicago DuPage Official Station 07/25 03:52:00 74.0 68.0 82 7 WSW --- 29.96 ---
KLOT Romeoville Official Station 07/25 04:35:00 74.0 67.0 81 5 West --- 29.97 ---
KARR Aurora Official Station 07/25 03:52:00 73.0 70.0 90 5 WNW --- 29.97 ---
KJOT Joliet Official Station 07/25 04:35:00 75.0 71.0 87 0 North --- 29.97 ---
Full Advisory Text
No Warnings

Ambient Weather and Weather Underground
 Never base important decisions on this or any weather information obtained from the Internet
Updated Automatically by Ambient Weather's Virtual Weather Station  V14.01